| Date | Temp | Humidity | Rainfall | Dew Point | Wind Direction | Wind Speed | Wind Pressure | Condition | Visibility |
|---|---|---|---|---|---|---|---|---|---|
| 2025-04-23 20:59:49 | 27 | 85 | 0.0 | 24 | 100 | 2 | 1010 | Cloudy | 10 km |
| 2025-04-23 20:04:43 | 28 | 79 | 0.0 | 24 | 070 | 2 | 1010 | Cloudy | 10 km |
| 2025-04-23 19:16:39 | 28 | 80 | 0.0 | 24 | 080 | 2 | 1010 | Cloudy | 10 km |
| 2025-04-23 17:59:20 | 29 | 76 | 0.0 | 24 | 330 | 4 | 1009 | Cloudy | 10 km |
| 2025-04-23 17:00:01 | 29 | 73 | 0.0 | 24 | 330 | 11.4 | 1009 | Partly Cloudy (Day) | 15KM |
| 2025-04-23 16:00:24 | 30 | 72 | 0.0 | 24 | 330 | 15.2 | 1009 | Partly Cloudy (Day) | 20KM |
| 2025-04-23 15:00:09 | 30 | 72 | 0.0 | 25 | 320 | 13.3 | 1009 | Cloudy | 20KM |
| 2025-04-23 13:59:06 | 31 | 71 | 0.0 | 25 | 330 | 11.4 | 1010 | Cloudy | 20KM |
| 2025-04-23 12:58:07 | 30 | 72 | 25 | 340 | 13.3 | 1011 | Partly Cloudy (Day) | 20KM | |
| 2025-04-23 12:01:13 | 30 | 68 | 24 | 240 | 5.7 | 1012 | Partly Cloudy (Day) | 20KM | |
| 2025-04-23 11:04:39 | 29 | 71 | 24 | 190 | 9.5 | 1013 | Partly Cloudy (Day) | 20KM | |
| 2025-04-23 10:00:04 | 28 | 79 | 0.00 | 24 | 160 | 3.8 | 1013 | Cloudy | 20 KM |
| 2025-04-23 09:06:41 | 27 | 83 | 0.00 | 24 | 130 | 7.6 | 1013 | Cloudy | 20 KM |
| 2025-04-23 07:59:17 | 26 | 88 | 24 | 210 | 11.4 | 1013 | Partly Cloudy (Day) | 20 KM | |
| 2025-04-23 06:59:40 | 25 | 90 | 24 | 190 | 9.5 | 1012 | Showers | 10 KM | |
| 2025-04-23 05:59:32 | 25 | 93 | 24 | 180 | 7.6 | 1011 | Showers | 10 KM | |
| 2025-04-23 05:00:54 | 25 | 93 | 24 | 160 | 9.5 | 1010 | Partly Cloudy (Night) | 10 KM | |
| 2025-04-23 04:00:37 | 25 | 93 | 24 | 200 | 7.6 | 1009 | Partly Cloudy (Night) | 10 KM | |
| 2025-04-23 03:02:05 | 25 | 94 | 24 | 170 | 5.7 | 1010 | Night Shower | 10 KM | |
| 2025-04-23 02:00:36 | 26 | 93 | 0.00 | 24 | 120 | 9.5 | 1011 | Partly Cloudy (Night) | 10KM |
| 2025-04-23 00:58:23 | 26 | 92 | 0.00 | 24 | 120 | 3.8 | 1012 | Partly Cloudy (Night) | 10KM |
| 2025-04-23 00:01:49 | 26 | 91 | 0.00 | 24 | 140 | 1.9 | 1012 | Partly Cloudy (Night) | 10KM |
| 2025-04-22 23:00:11 | 26 | 91 | 0.00 | 26 | 160 | 5.7 | 1013 | Partly Cloudy (Night) | 10KM |
| 2025-04-22 22:00:39 | 26 | 93 | 0.00 | 25 | 140 | 5.7 | 1012 | Showers | 10KM |
| 2025-04-22 21:02:48 | 27 | 87 | 0.00 | 24 | 020 | 7.6 | 1012 | Showers | 10 km |